EW5817 Weather Reports


time (UTC)temp
C
wind
direction
speed
KPH
gust
KPH
rain 1hr
cm
rain 24hr
cm
rain mn
cm
humidity
%
barometer
mb
20260509123406 10 248 11.3 41.8 0.00 0.00 0.00 92 1002.0
20260509122904 10 248 14.5 37.0 0.00 0.00 0.00 92 1002.0
20260509122404 10 225 32.2 37.0 0.00 0.00 0.00 92 1002.0
20260509121834 10 180 19.3 30.6 0.00 0.00 0.00 92 1002.0
20260509121404 10 203 8.0 30.6 0.00 0.00 0.00 92 1002.0
20260509120904 10 203 11.3 29.0 0.00 0.00 0.00 92 1002.0
20260509120404 10 270 12.9 40.2 0.00 0.00 0.00 92 1002.0
20260509115904 10 225 12.9 40.2 0.00 0.00 0.00 92 1002.0
20260509115403 10 248 14.5 30.6 0.00 0.00 0.00 92 1002.0
20260509114433 10 225 14.5 32.2 0.00 0.00 0.00 92 1000.9
20260509113403 10 203 14.5 35.4 0.00 0.00 0.00 92 1000.9
20260509112903 10 203 19.3 35.4 0.00 0.00 0.00 92 1000.9
20260509110433 10 248 9.7 38.6 0.00 0.00 0.00 93 1000.0
20260509105902 10 225 27.4 41.8 0.00 0.00 0.00 92 1000.0
20260509104401 10 203 22.5 29.0 0.00 0.00 0.00 93 1000.0
20260509103401 10 248 20.9 35.4 0.00 0.00 0.00 92 1000.9
20260509102901 10 248 16.1 35.4 0.00 0.00 0.00 92 1000.9
20260509102401 10 203 4.8 35.4 0.00 0.00 0.00 92 1000.9
20260509101901 10 135 17.7 35.4 0.00 0.00 0.00 92 1000.9
20260509101401 10 203 32.2 35.4 0.00 0.00 0.00 92 1000.9
20260509100401 10 180 8.0 35.4 0.00 0.00 0.00 92 1000.9
20260509095900 11 203 14.5 35.4 0.00 0.00 0.00 92 1000.9
20260509095400 11 158 30.6 35.4 0.00 0.00 0.00 92 1000.9
20260509094400 11 203 22.5 37.0 0.00 0.00 0.00 91 1000.9
20260509093900 11 203 19.3 45.1 0.00 0.00 0.00 91 1000.9
20260509092859 11 203 22.5 37.0 0.00 0.00 0.00 92 1000.9
20260509092400 11 180 17.7 35.4 0.00 0.00 0.00 93 1002.0
20260509091900 11 90 19.3 32.2 0.00 0.00 0.00 93 1002.0
20260509091359 11 203 12.9 32.2 0.00 0.00 0.00 93 1002.0
20260509090858 11 180 12.9 30.6 0.00 0.00 0.00 92 1002.0
20260509090359 11 203 12.9 30.6 0.00 0.00 0.00 92 1002.0
20260509085858 11 158 4.8 32.2 0.00 0.00 0.00 91 1002.0
20260509085358 11 203 19.3 32.2 0.00 0.00 0.00 91 1002.0
20260509084858 11 270 6.4 32.2 0.00 0.00 0.00 90 1002.0
20260509084358 11 158 6.4 27.4 0.00 0.00 0.00 89 1002.0
20260509083928 11 248 14.5 27.4 0.00 0.00 0.00 88 1002.0
20260509083357 11 203 24.1 25.7 0.00 0.00 0.00 88 1002.0
20260509082357 11 203 16.1 33.8 0.00 0.00 0.00 86 1002.0
20260509081358 11 180 12.9 30.6 0.00 0.00 0.00 87 1002.0
20260509080857 11 248 4.8 25.7 0.00 0.00 0.00 86 1002.0
20260509075856 11 225 11.3 32.2 0.00 0.00 0.00 87 1002.0
20260509074856 11 203 12.9 25.7 0.00 0.00 0.00 86 1002.0
20260509074357 11 203 22.5 24.1 0.00 0.00 0.00 86 1002.0
20260509073856 11 248 6.4 37.0 0.00 0.00 0.00 85 1002.0
20260509073357 11 225 9.7 37.0 0.00 0.00 0.00 85 1002.0
20260509072926 11 203 30.6 33.8 0.00 0.00 0.00 84 1002.0
20260509071856 11 203 4.8 29.0 0.00 0.00 0.00 85 1002.9
20260509071355 11 203 12.9 24.1 0.00 0.00 0.00 84 1002.9
20260509070855 11 158 4.8 30.6 0.00 0.00 0.00 83 1002.9
20260509065855 12 203 22.5 32.2 0.00 0.00 0.00 81 1002.9
20260509065355 12 180 8.0 37.0 0.00 0.00 0.00 79 1002.9
20260509064855 12 270 11.3 37.0 0.00 0.00 0.00 78 1002.9
20260509064354 12 158 9.7 32.2 0.00 0.00 0.00 76 1002.9
20260509063354 13 180 8.0 40.2 0.00 0.00 0.00 72 1002.9
20260509062854 13 135 16.1 33.8 0.00 0.00 0.00 72 1002.9
20260509062354 13 158 19.3 33.8 0.00 0.00 0.00 67 1002.9
20260509061854 13 248 22.5 32.2 0.00 0.00 0.00 65 1002.9
20260509061353 13 158 8.0 32.2 0.00 0.00 0.00 59 1002.9
20260509060853 13 203 27.4 32.2 0.00 0.00 0.00 56 1004.0
20260509060353 13 225 8.0 38.6 0.00 0.00 0.00 48 1004.0
20260509055853 13 113 11.3 38.6 0.00 0.00 0.00 48 1004.0
20260509055353 13 158 16.1 35.4 0.00 0.00 0.00 47 1004.0
20260509054853 13 203 20.9 35.4 0.00 0.00 0.00 46 1004.0
20260509053852 13 360 17.7 30.6 0.00 0.00 0.00 45 1004.0
20260509053352 13 113 0.0 30.6 0.00 0.00 0.00 45 1004.0
20260509052852 12 203 8.0 25.7 0.00 0.00 0.00 45 1004.0
20260509052352 12 158 8.0 14.5 0.00 0.00 0.00 45 1004.0
20260509051852 12 135 0.0 19.3 0.00 0.00 0.00 45 1004.0
20260509051352 12 158 8.0 19.3 0.00 0.00 0.00 44 1004.0
20260509050351 11 113 6.4 12.9 0.00 0.00 0.00 46 1004.0
20260509045351 11 158 8.0 14.5 0.00 0.00 0.00 46 1004.0
20260509044851 10 158 8.0 12.9 0.00 0.00 0.00 46 1004.0
20260509044351 10 158 0.0 11.3 0.00 0.00 0.00 46 1004.0
20260509043851 10 180 11.3 11.3 0.00 0.00 0.00 46 1004.0
20260509043351 10 158 8.0 9.7 0.00 0.00 0.00 46 1004.0
20260509042951 10 113 0.0 9.7 0.00 0.00 0.00 47 1004.0
20260509042350 10 158 4.8 8.0 0.00 0.00 0.00 46 1004.9
20260509041850 10 113 0.0 9.7 0.00 0.00 0.00 45 1004.9
20260509040851 10 180 4.8 8.0 0.00 0.00 0.00 44 1004.0
20260509040350 10 158 0.0 8.0 0.00 0.00 0.00 45 1004.0
20260509035349 9 158 8.0 9.7 0.00 0.00 0.00 42 1004.0
20260509034849 9 158 3.2 9.7 0.00 0.00 0.00 41 1004.0
20260509034349 9 113 8.0 9.7 0.00 0.00 0.00 43 1004.0
20260509033849 9 113 4.8 6.4 0.00 0.00 0.00 40 1004.0
20260509033349 9 158 0.0 6.4 0.00 0.00 0.00 40 1004.0
20260509032848 9 135 0.0 8.0 0.00 0.00 0.00 39 1004.0
20260509032348 9 180 0.0 8.0 0.00 0.00 0.00 39 1004.9
20260509031848 9 158 0.0 8.0 0.00 0.00 0.00 39 1004.9
20260509031348 9 158 3.2 9.7 0.00 0.00 0.00 39 1004.9
20260509030848 9 180 3.2 9.7 0.00 0.00 0.00 38 1004.9
20260509030348 9 135 0.0 0.0 0.00 0.00 0.00 38 1004.9
20260509025848 9 113 0.0 0.0 0.00 0.00 0.00 38 1004.9
20260509025348 10 113 0.0 0.0 0.00 0.00 0.00 38 1004.9
20260509024347 10 158 0.0 8.0 0.00 0.00 0.00 37 1004.9
20260509023847 10 158 0.0 8.0 0.00 0.00 0.00 37 1004.9
20260509023417 10 135 0.0 6.4 0.00 0.00 0.00 37 1004.9
20260509021846 10 158 0.0 0.0 0.00 0.00 0.00 37 1004.9
20260509021347 10 113 0.0 0.0 0.00 0.00 0.00 37 1004.9
20260509020846 10 113 0.0 1.6 0.00 0.00 0.00 36 1006.0
20260509020346 10 180 0.0 4.8 0.00 0.00 0.00 36 1006.0
20260509015846 10 203 0.0 4.8 0.00 0.00 0.00 34 1006.0
20260509015346 10 203 3.2 3.2 0.00 0.00 0.00 34 1006.0
20260509014846 10 180 0.0 3.2 0.00 0.00 0.00 33 1006.0
20260509013845 11 180 0.0 0.0 0.00 0.00 0.00 32 1006.0
20260509013345 11 180 0.0 3.2 0.00 0.00 0.00 29 1006.0
20260509012846 11 158 0.0 3.2 0.00 0.00 0.00 29 1006.0
20260509012345 11 180 0.0 0.0 0.00 0.00 0.00 29 1004.9
20260509010844 12 180 0.0 3.2 0.00 0.00 0.00 27 1004.9
20260509005844 13 180 0.0 0.0 0.00 0.00 0.00 26 1004.9
20260509004714 14 203 0.0 8.0 0.00 0.00 0.00 25 1004.9
20260509003344 14 203 0.0 8.0 0.00 0.00 0.00 25 1004.9
20260509002843 14 203 0.0 9.7 0.00 0.00 0.00 24 1004.9
20260509001844 15 203 0.0 9.7 0.00 0.00 0.00 22 1006.0
20260509001343 15 180 0.0 9.7 0.00 0.00 0.00 22 1006.0
20260509000843 15 203 0.0 11.3 0.00 0.00 0.00 24 1006.0
20260509000342 15 203 0.0 11.3 0.00 0.00 0.00 22 1006.0
20260508234842 15 180 3.2 17.7 0.00 0.00 0.00 17 1006.0
20260508234342 15 158 8.0 17.7 0.00 0.00 0.00 19 1006.0
20260508233842 15 225 6.4 14.5 0.00 0.00 0.00 22 1006.0
20260508233342 15 113 4.8 17.7 0.00 0.00 0.00 25 1006.0
20260508232842 16 180 3.2 24.1 0.00 0.00 0.00 24 1006.0
20260508231841 16 158 4.8 16.1 0.00 0.00 0.00 24 1006.0
20260508231341 16 158 6.4 16.1 0.00 0.00 0.00 25 1006.0
20260508230842 16 158 4.8 14.5 0.00 0.00 0.00 25 1006.0
20260508225411 16 180 4.8 24.1 0.00 0.00 0.00 24 1004.9
20260508224840 16 158 14.5 24.1 0.00 0.00 0.00 24 1004.9
20260508224340 16 203 14.5 17.7 0.00 0.00 0.00 25 1004.9
20260508223340 16 180 9.7 19.3 0.00 0.00 0.00 25 1006.0
20260508222840 15 203 12.9 20.9 0.00 0.00 0.00 26 1006.0
20260508221939 15 180 12.9 25.7 0.00 0.00 0.00 25 1006.0
20260508221339 16 248 8.0 20.9 0.00 0.00 0.00 26 1006.0
20260508220839 16 225 9.7 20.9 0.00 0.00 0.00 26 1006.9
20260508220339 16 225 8.0 24.1 0.00 0.00 0.00 27 1006.9
20260508214840 16 248 3.2 29.0 0.00 0.00 0.00 29 1006.9
20260508214339 16 203 8.0 29.0 0.00 0.00 0.00 28 1006.9
20260508213338 16 180 8.0 25.7 0.00 0.00 0.00 31 1006.9
20260508212838 16 225 11.3 30.6 0.00 0.00 0.00 29 1006.9
20260508211838 16 225 12.9 24.1 0.00 0.00 0.00 31 1006.9
20260508211338 17 203 4.8 24.1 0.00 0.00 0.00 34 1006.9
20260508210407 17 225 8.0 20.9 0.00 0.00 0.00 34 1006.9
20260508204907 16 225 8.0 16.1 0.00 0.00 0.00 35 1006.9
20260508204336 16 248 6.4 16.1 0.00 0.00 0.00 35 1006.9
20260508203907 16 248 3.2 19.3 0.00 0.00 0.00 36 1008.0
20260508203407 16 225 11.3 19.3 0.00 0.00 0.00 36 1008.0
20260508202407 16 225 14.5 24.1 0.00 0.00 0.00 38 1008.0
20260508201906 16 203 12.9 24.1 0.00 0.00 0.00 38 1008.0
20260508201406 16 270 14.5 32.2 0.00 0.00 0.00 38 1008.0
20260508200905 16 248 16.1 32.2 0.00 0.00 0.00 37 1008.0
20260508200406 16 270 8.0 30.6 0.00 0.00 0.00 39 1008.0
20260508195905 16 203 14.5 30.6 0.00 0.00 0.00 38 1008.0
20260508195405 16 203 11.3 24.1 0.00 0.00 0.00 40 1009.0
20260508194905 16 203 9.7 25.7 0.00 0.00 0.00 39 1009.0
20260508192904 16 203 12.9 25.7 0.00 0.00 0.00 41 1008.0
20260508192405 16 225 6.4 24.1 0.00 0.00 0.00 42 1008.0
20260508191934 15 203 16.1 24.1 0.00 0.00 0.00 39 1008.0
20260508191404 15 180 12.9 22.5 0.00 0.00 0.00 40 1008.0
20260508190905 15 225 17.7 19.3 0.00 0.00 0.00 42 1008.0
20260508185403 15 225 16.1 20.9 0.00 0.00 0.00 42 1008.0
20260508184903 15 293 6.4 22.5 0.00 0.00 0.00 43 1008.0
20260508184403 15 203 8.0 22.5 0.00 0.00 0.00 43 1008.0
20260508182903 15 203 17.7 24.1 0.00 0.00 0.00 38 1006.9
20260508182403 15 225 16.1 19.3 0.00 0.00 0.00 38 1008.0
20260508181902 15 248 16.1 19.3 0.00 0.00 0.00 38 1008.0
20260508181403 15 293 17.7 19.3 0.00 0.00 0.00 38 1008.0
20260508180902 15 203 11.3 19.3 0.00 0.00 0.00 38 1008.0
20260508180402 15 248 9.7 20.9 0.00 0.00 0.00 37 1009.0
20260508175902 15 248 9.7 24.1 0.00 0.00 0.00 37 1009.0
20260508175402 15 248 17.7 24.1 0.00 0.00 0.00 36 1009.0
20260508174401 15 225 14.5 19.3 0.00 0.00 0.00 37 1009.0
20260508173901 15 248 16.1 22.5 0.00 0.00 0.00 37 1009.0
20260508173401 15 248 9.7 22.5 0.00 0.00 0.00 37 1009.0
20260508172901 15 248 19.3 24.1 0.00 0.00 0.00 36 1009.0
20260508172400 15 203 6.4 24.1 0.00 0.00 0.00 36 1009.0
20260508171431 15 203 8.0 24.1 0.00 0.00 0.00 36 1009.0
20260508170900 15 180 20.9 24.1 0.00 0.00 0.00 37 1010.0
20260508170401 15 248 11.3 19.3 0.00 0.00 0.00 39 1010.0
20260508163930 14 203 8.0 19.3 0.00 0.00 0.00 44 1010.0
20260508163400 15 203 0.0 19.3 0.00 0.00 0.00 45 1010.0
20260508162859 14 225 8.0 30.6 0.00 0.00 0.00 45 1010.0
20260508162429 14 180 12.9 30.6 0.00 0.00 0.00 46 1010.0
20260508161359 14 248 8.0 20.9 0.00 0.00 0.00 48 1010.0
20260508160858 14 225 8.0 20.9 0.00 0.00 0.00 47 1010.0
20260508154858 14 180 0.0 25.7 0.00 0.00 0.00 50 1010.0
20260508154358 13 248 12.9 25.7 0.00 0.00 0.00 52 1010.0
20260508153858 13 248 0.0 20.9 0.00 0.00 0.00 54 1010.0
20260508153357 13 203 0.0 22.5 0.00 0.00 0.00 55 1010.0
20260508152857 12 203 16.1 22.5 0.00 0.00 0.00 60 1010.0
20260508152357 12 203 4.8 22.5 0.00 0.00 0.00 63 1009.0
20260508151358 12 203 8.0 24.1 0.00 0.00 0.00 68 1009.0
20260508150357 11 203 17.7 30.6 0.00 0.00 0.00 69 1010.0
20260508145356 11 225 12.9 30.6 0.00 0.00 0.00 69 1010.0
20260508144856 11 248 16.1 24.1 0.00 0.00 0.00 68 1010.0
20260508144356 11 248 12.9 22.5 0.00 0.00 0.00 69 1010.0
20260508143856 11 225 9.7 22.5 0.00 0.00 0.00 66 1010.0
20260508142856 11 203 14.5 25.7 0.00 0.00 0.00 65 1010.0
20260508142356 11 203 9.7 24.1 0.00 0.00 0.00 66 1010.0
20260508141355 11 203 6.4 20.9 0.00 0.00 0.00 61 1010.0
20260508140856 11 203 14.5 14.5 0.00 0.00 0.00 61 1008.0
20260508135854 11 248 0.0 17.7 0.00 0.00 0.00 61 1008.0
20260508135426 11 203 0.0 17.7 0.00 0.00 0.00 62 1008.0
20260508134855 11 225 8.0 17.7 0.00 0.00 0.00 61 1008.0
20260508134424 11 225 9.7 17.7 0.00 0.00 0.00 62 1008.0
20260508133855 11 203 0.0 14.5 0.00 0.00 0.00 62 1009.0
20260508133354 11 203 14.5 14.5 0.00 0.00 0.00 62 1009.0
20260508132854 10 203 0.0 0.0 0.00 0.00 0.00 68 1009.0
20260508132424 10 203 0.0 0.0 0.00 0.00 0.00 68 1010.0
20260508131853 10 203 0.0 9.7 0.00 0.00 0.00 68 1010.0
20260508131353 10 203 0.0 12.9 0.00 0.00 0.00 69 1010.0
20260508130353 10 203 0.0 16.1 0.00 0.00 0.00 77 1010.0
20260508125853 9 203 0.0 17.7 0.00 0.00 0.00 83 1010.0
20260508125353 8 158 6.4 17.7 0.00 0.00 0.00 86 1010.0
20260508124353 6 203 6.4 11.3 0.00 0.00 0.00 92 1010.0